Home > Time Zones > World Clock > Weather > Canada > Ajax > Past weeks

Flag for Canada Weather past 2 weeks in Ajax, Ontario, Canada

Now
64 °F

Passing clouds.


Feels Like: 64 °F
Forecast: 60 / 76 °F
Wind: No wind

Location: Toronto Buttonville

Current Time: Aug 1, 2014 at 3:53:53 AM

Latest Report: Aug 1, 2014 at 3:00 AM


Visibility: 15 mi

Pressure: 30.04 "Hg

Humidity: 78%

Dew point: 57 °F

Location of AjaxLocation

Historic Weather in Ajax — Graph

°F

Ajax temperature yesterday

Maximum temperature yesterday: 77 °F (at 5:00 PM)
Minimum temperature yesterday: 55 °F (at 3:00 AM)
Average temperature yesterday: 66 °F

Past Weeks' High & Low Weather Summary

 TemperatureHumidityPressure
High84 °F (Jul 27, 4:00 PM)100% (Jul 20, 4:00 AM)30.25 "Hg (Jul 20, 4:00 AM)
Low48 °F (Jul 17, 6:00 AM)33% (Jul 18, 8:00 PM)29.61 "Hg (Jul 27, 6:00 PM)
Average66 °F72%29.99 "Hg
* Reported Jul 17 2:00 AM — Aug 1 2:00 AM, Ajax, Weather by CustomWeather, © 2014

Note: Actual official high and low records may vary slightly from our data, if they occured in-between our weather recording intervals... More about our weather records

Advertising

Ajax weather history for previous 24 hours

 ConditionsComfort  
Time TempWeatherWind HumidityBarometerVisibility
2:00 AM
Aug 1
66 °FPassing clouds.5 mph73%30.05 "Hg15 mi
1:00 AM66 °FPassing clouds.5 mph68%30.05 "Hg15 mi
12:00 AM68 °FPassing clouds.7 mph64%30.05 "Hg15 mi
11:00 PM
Jul 31
68 °FPassing clouds.6 mph69%30.05 "Hg15 mi
10:00 PM68 °FPassing clouds.7 mph73%30.05 "Hg15 mi
9:00 PM72 °FScattered clouds.3 mph53%30.03 "Hg15 mi
8:00 PM73 °FPassing clouds.6 mph50%30.02 "Hg15 mi
7:00 PM75 °FPassing clouds.10 mph47%30.01 "Hg15 mi
6:00 PM75 °FScattered clouds.12 mph47%30.01 "Hg15 mi
5:00 PM77 °FScattered clouds.8 mph42%30.00 "Hg15 mi
4:00 PM75 °FBroken clouds.10 mph44%30.00 "Hg15 mi
3:00 PM75 °FPartly sunny.10 mph44%29.99 "Hg15 mi
2:00 PM72 °FPartly sunny.5 mph53%30.00 "Hg15 mi
1:00 PM72 °FBroken clouds.8 mph53%30.00 "Hg15 mi
12:00 PM70 °FPassing clouds.3 mph53%30.00 "Hg15 mi
11:00 AM66 °FPartly sunny.3 mph64%30.00 "Hg15 mi
10:00 AM64 °FPartly sunny.6 mph68%30.00 "Hg15 mi
9:00 AM61 °FPartly sunny.2 mph77%30.01 "Hg15 mi
8:00 AM59 °FPartly sunny.2 mph77%30.01 "Hg15 mi
7:00 AM57 °FPassing clouds.2 mph82%29.98 "Hg15 mi
6:00 AM57 °FPassing clouds.3 mph82%29.98 "Hg15 mi
5:00 AM57 °FPartly cloudy.5 mph77%29.98 "Hg12 mi
4:00 AM55 °FPassing clouds.No wind88%29.98 "Hg12 mi
3:00 AM55 °FPassing clouds.2 mph94%29.98 "Hg12 mi
Weather by CustomWeather, © 2014

See weather overviewHow to use our weather pages